STARLINK-37014

Last updated on Sun Apr 12 2026 00:02:07 GMT+0000 (Coordinated Universal Time)

1 68216U 26053K 26101.50002315 -.01816104 00000+0 -23540-1 0 9992 2 68216 97.2843 337.4296 0001819 69.6647 42.5092 15.61868052 5299

Satellite not in orbit

STARLINK-37014